Tracking 28799 objects as of 18-Apr-2024
HD Live streaming from Space Station
objects crossing your sky now

STARLINK-1420

Track STARLINK-1420 now!
10-day predictions
STARLINK-1420 is classified as:


NORAD ID: 45695
Int'l Code: 2020-035AQ
Perigee: 553.0 km
Apogee: 555.7 km
Inclination: 53.1 °
Period: 95.6 minutes
Semi major axis: 6925 km
RCS: Unknown
Launch date: June 4, 2020
Source: United States (US)
Launch site: AIR FORCE EASTERN TEST RANGE (AFETR)
Your satellite tracking list
Your tracking list is empty




NASA's NSSDC Master Catalog

Two Line Element Set (TLE):
1 45695U 20035AQ  24108.68161983 -.00000140  00000-0  95388-5 0  9990
2 45695  53.0561 258.6621 0001944  90.7488 269.3724 15.06393097215009
Source of the keplerian elements: AFSPC